This demonstration page uses our WeatherBlox Daily Observations layout. Learn more.

Left ArrowRight Arrow

Hourly Observations for September 30, 2021

Temp ( °F °C ) Dew Point ( °F °C ) Humidity (%) Winds ( mph kmh ) Pressure ( in mb ) Visibility ( mi km ) Precip ( " mm )
12:53 am 00:53 Mostly Clear 69 20.6 63 17.2 81 81 SSE 10 17 29.93 1013 10 16 0.00 0.00
1:40 am 01:40 Cloudy 66 18.9 57 13.9 73 73 NW 17 28 29.95 1014 10 16 0.00 0.00
1:53 am 01:53 Cloudy with Light Rain 63 17.2 59 15 87 87 NW 16 26 29.96 1014 8 13 0.03 0.76
2:03 am 02:03 Cloudy with Light Rain 62 16.7 59 15 90 90 NW 17 28 29.96 1015 7 11 0.02 0.51
2:41 am 02:41 Cloudy with Nearby Thunderstorms 61 16.1 59 15 93 93 WNW 12 19 29.96 1015 10 16 0.08 2.03
2:53 am 02:53 Cloudy with Nearby Thunderstorms 61 16.1 59 15 93 93 WNW 14 22 29.96 1015 10 16 0.09 2.29
3:14 am 03:14 Cloudy with Light Rain 61 16.1 59 15 93 93 W 9 15 29.99 1016 8 13 0.02 0.51
3:53 am 03:53 Cloudy with Light Rain 60 15.6 58 14.4 93 93 WNW 12 19 29.99 1016 10 16 0.03 0.76
4:36 am 04:36 Cloudy with Light Rain 59 15 58 14.4 96 96 NW 16 26 29.99 1016 10 16 0.01 0.25
4:50 am 04:50 Cloudy with Light Rain 59 15 57 14 94 94 NNW 13 20 29.98 1015 10 16 0.01 0.25
4:53 am 04:53 Cloudy with Light Rain 59 15 57 13.9 93 93 NNW 13 20 29.97 1015 10 16 0.01 0.25
5:53 am 05:53 Cloudy 58 14.4 56 13.3 93 93 N 13 20 29.97 1015 10 16 0.00 0.00
6:53 am 06:53 Cloudy 57 13.9 55 12.8 93 93 WNW 16 26 30.03 1017 10 16 0.00 0.00
7:53 am 07:53 Cloudy 54 12.2 53 11.7 97 97 NW 20 31 30.04 1017 8 13 0.00 0.00
8:53 am 08:53 Cloudy 54 12.2 52 11.1 93 93 NNW 18 30 30.05 1018 10 16 0.00 0.00
9:53 am 09:53 Cloudy 55 12.8 53 11.7 93 93 NNW 10 17 30.08 1019 10 16 0.00 0.00
10:53 am 10:53 Cloudy 56 13.3 53 11.7 90 90 NW 12 19 30.08 1019 10 16 0.00 0.00
11:53 am 11:53 Cloudy 57 13.9 54 12.2 90 90 NNW 12 19 30.09 1019 10 16 0.00 0.00
12:53 pm 12:53 Cloudy 59 15 54 12.2 83 83 NNW 15 24 30.07 1018 10 16 0.00 0.00
1:03 pm 13:03 Cloudy 59 15 55 12.8 87 87 NNW 15 24 30.07 1018 10 16 0.00 0.00
1:53 pm 13:53 Cloudy 58 14.4 54 12.2 87 87 NNW 14 22 30.08 1019 10 16 0.00 0.00
2:24 pm 14:24 Cloudy 59 15 55 13 88 88 NW 10 17 30.07 1018 10 16 0.00 0.00
2:53 pm 14:53 Cloudy 59 15 55 12.8 87 87 NNW 15 24 30.08 1019 10 16 0.00 0.00
3:53 pm 15:53 Cloudy 59 15 56 13.3 90 90 NNW 10 17 30.07 1018 10 16 0.00 0.00
4:35 pm 16:35 Cloudy 60 15.6 56 13.3 86 86 NW 10 17 30.06 1018 10 16 0.00 0.00
4:53 pm 16:53 Cloudy 60 15.6 56 13.3 86 86 NNW 12 19 30.07 1018 10 16 0.00 0.00
5:53 pm 17:53 Cloudy 60 15.6 56 13.3 86 86 NW 10 17 30.08 1019 10 16 0.00 0.00
6:24 pm 18:24 Cloudy 59 15 56 13.3 90 90 NNW 13 20 30.06 1018 10 16 0.00 0.00
6:53 pm 18:53 Cloudy 59 15 56 13.3 90 90 NNW 9 15 30.09 1019 10 16 0.00 0.00
7:53 pm 19:53 Cloudy 59 15 56 13.3 90 90 NW 7 11 30.11 1020 10 16 0.00 0.00
8:53 pm 20:53 Cloudy 59 15 56 13.3 90 90 NNW 6 9 30.11 1020 10 16 0.00 0.00
9:53 pm 21:53 Cloudy 59 15 57 13.9 93 93 NW 8 13 30.11 1020 10 16 0.00 0.00
10:42 pm 22:42 Cloudy with Mist and Fog 57 14 57 14 100 100 NNW 5 7 30.10 1019 3 4 0.00 0.00
10:50 pm 22:50 Cloudy with Mist and Fog 57 14 57 14 100 100 NNW 8 13 30.10 1019 3 5 0.00 0.00
10:53 pm 22:53 Cloudy with Mist and Fog 58 14.4 57 13.9 97 97 NNW 8 13 30.11 1020 3 5 0.00 0.00
11:19 pm 23:19 Cloudy 58 14.4 57 13.9 97 97 NNW 8 13 30.09 1019 10 16 0.00 0.00
11:53 pm 23:53 Cloudy with Mist and Fog 58 14.4 57 13.9 97 97 NW 5 7 30.10 1019 6 10 0.00 0.00

Powered by AerisWeather